Location: Eschentzwiller
(47.7125°N, 7.3981°E)
Time: 04:09:48
(UTC+00:00)

Cosmos 2058 Rocket - Pass Details

Date: 27 October 2020
Orbit: 610 x 640 km, 82.5° (Epoch: 01 December)

Event Time Altitude Azimuth Distance (km) Brightness Sun altitude
Rises 17:39:17 0° 186° (S) 2,915 6.6 -13.8°
Reaches altitude 10° 17:41:30 10° 185° (S) 2,016 5.8 -14.2°
Maximum altitude 17:45:58 84° 100° (E) 648 3.0 -15.0°
Drops below altitude 10° 17:50:31 10° 11° (N) 2,043 5.6 -15.7°
Sets 17:52:47 0° 11° (N) 2,957 6.4 -16.1°
